DELTA 1 DEB, 10868

Orbit data source: Space-Track

DELTA 1 DEB, 10868 is space debris in SSO originally from a launch on Thu, 29 Jul 1976 UTC launched from the Air Force Western Test Range (AFWTR). Debris objects in space refer to the collection of defunct objects orbiting the Earth. Examples of debris include non-operational satellites, rocket bodies, and fragments generated from explosions, collisions, or faulty payload assembly.

Loading next visibility...
Identifier
10868, 1976-077CW
Orbit
SSO
Country
Flag of USUS
Related business
Manufacturer
Unknown
Mission
Spacecraft
Bus & Motor
Unknown
Mass
Unknown
Launch date (UTC)
1976-07-29 (50 years ago)
Launch vehicle
Unknown
Launch site
Air Force Western Test Range (AFWTR)
Object type
Payload
Rocket body
Debris
Shape & HBR
Unknown shape, 0.1 m
Radar Cross Section
Medium (>0.1 m² and <1 m²)

Expand to show TLE details & history
Last TLE update: 3 days ago

TLE from 3 days ago
0 DELTA 1 DEB
1 10868U 76077CW  26171.09013122  .00000362  00000-0  30135-2 0  9990
2 10868 102.4132  17.5989 0108215  61.5711  89.0933 12.39627872243205
Epoch: 2026-06-20T02:09Z
TLE epoch observation values (Epoch: 2026-06-20T02:09:47.337Z)
Latitude
27.42209°
Longitude
-96.63279°
Altitude
1,510.78 km
Speed
7.112 km/s
True Right ascension
13h 36m 29s
True Declination
27° 17' 43"
Sunlit
Object was in daylight at epoch
Visualization orbit readout
Latitude
Unknown
Longitude
Unknown
Altitude
Unknown
Speed
Unknown
Apparent Right ascension
Unknown
Apparent Declination
Unknown
Sunlit
N/A
Visualization observer readout
Local Sidereal Time
08:39:54
Azimuth
Unknown
Elevation
Unknown
Doppler factor
Unknown
Orbital elements
Apogee altitude
1,591.097 km
Perigee altitude
1,420.465 km
Semi-major axis
7,883.918 km
Eccentricity
0.01082
Inclination
102.4132°
RAAN
17.5989°
Arg. of periapsis
61.5711°
True anomaly
90.33337°
Mean anomaly
89.0933°
Eccentric anomaly
89.71332°
Mean motion
3.10049 °/min
Orbital period
116.11 mins
BSTAR
0.0030135
Loading maneuver chart data...
Computing Atmospheric mass density...
Loading historical data...
Loading historical data...
Loading historical data...
Loading historical data...
Loading historical data...
Loading historical data...
Loading historical data...

Documentation

Showing up to 5 results
|